AIC161 VIDP-EGLL

Flight info

Callsign AIC161
Flight time N/A
Altitude 34000
Route DUDUM6C DUDUM Q2 NIKOT R462 UUD J61 LAXOM L639 RASKI N881 KIPOL L444 TOLDA M628 TULBU G652 TOKRA DCT ALROK DCT BOSOB/N0491F360 DCT ITRUX Y511 PMA Z712 WEJ L677 CVO L617 MENKU/N0477F380 L617 TANSA UL617 SIT DCT TSL UM987 ATFIR N133 LOMOS DCT SAT DCT PITOK DCT SLC DCT MAKAL DCT HDO/N0484F400 DCT KOSIX L986 SAS L980 LOGAN
Aircraft B77L/H-SDE1E2E3FGHIJ2J3J4J5M1RWXY/LB1D1

Departure

Time 2026-05-06 15:59
Airport Indira Gandhi International Airport (VIDP)

Arrival

Time N/A
Airport London Heathrow Airport (EGLL)
Time Latitude Longitude Altitude Speed Heading
2026-05-06 15:44 28.55228 77.08449 758 ft 0 kts 328°
2026-05-06 15:45 28.55219 77.08456 754 ft 1 kts 327°
2026-05-06 15:45 28.55209 77.08463 754 ft 1 kts 328°
2026-05-06 15:45 28.55197 77.08472 754 ft 2 kts 326°
2026-05-06 15:45 28.55183 77.08483 752 ft 2 kts 323°
2026-05-06 15:46 28.55170 77.08495 752 ft 2 kts 318°
2026-05-06 15:46 28.55158 77.08508 752 ft 2 kts 301°
2026-05-06 15:46 28.55153 77.08526 752 ft 2 kts 262°
2026-05-06 15:46 28.55155 77.08535 752 ft 1 kts 257°
2026-05-06 15:49 28.55154 77.08530 752 ft 5 kts 257°
2026-05-06 15:49 28.55131 77.08473 751 ft 10 kts 239°
2026-05-06 15:50 28.55092 77.08399 753 ft 12 kts 239°
2026-05-06 15:50 28.55026 77.08330 750 ft 14 kts 204°
2026-05-06 15:50 28.54951 77.08312 750 ft 8 kts 176°
2026-05-06 15:50 28.54907 77.08353 750 ft 9 kts 118°
2026-05-06 15:51 28.54887 77.08424 753 ft 10 kts 105°
2026-05-06 15:51 28.54867 77.08504 750 ft 11 kts 105°
2026-05-06 15:51 28.54845 77.08594 751 ft 12 kts 105°
2026-05-06 15:51 28.54822 77.08690 751 ft 13 kts 105°
2026-05-06 15:52 28.54798 77.08795 751 ft 14 kts 105°
2026-05-06 15:52 28.54771 77.08907 751 ft 15 kts 105°
2026-05-06 15:52 28.54744 77.09025 751 ft 16 kts 103°
2026-05-06 15:52 28.54718 77.09146 754 ft 16 kts 104°
2026-05-06 15:53 28.54691 77.09266 752 ft 16 kts 104°
2026-05-06 15:53 28.54659 77.09405 753 ft 20 kts 104°
2026-05-06 15:53 28.54621 77.09573 751 ft 24 kts 104°
2026-05-06 15:53 28.54577 77.09765 751 ft 27 kts 105°
2026-05-06 15:54 28.54529 77.09972 754 ft 27 kts 104°
2026-05-06 15:54 28.54481 77.10181 752 ft 27 kts 104°
2026-05-06 15:54 28.54432 77.10389 753 ft 27 kts 105°
2026-05-06 15:54 28.54386 77.10597 752 ft 27 kts 103°
2026-05-06 15:55 28.54343 77.10807 754 ft 27 kts 103°
2026-05-06 15:55 28.54331 77.10869 753 ft 1 kts 102°
2026-05-06 15:55 28.54325 77.10900 752 ft 7 kts 102°
2026-05-06 15:55 28.54309 77.10961 753 ft 9 kts 108°
2026-05-06 15:56 28.54289 77.11043 750 ft 12 kts 103°
2026-05-06 15:56 28.54269 77.11131 751 ft 6 kts 114°
2026-05-06 15:56 28.54229 77.11153 750 ft 8 kts 182°
2026-05-06 15:56 28.54200 77.11148 750 ft 0 kts 194°
2026-05-06 15:57 28.54196 77.11147 750 ft 3 kts 193°
2026-05-06 15:57 28.54146 77.11135 748 ft 12 kts 192°
2026-05-06 15:58 28.54088 77.11099 750 ft 9 kts 246°
2026-05-06 15:58 28.54090 77.11057 751 ft 5 kts 278°
2026-05-06 15:58 28.54101 77.11004 750 ft 9 kts 283°
2026-05-06 15:58 28.54145 77.10797 752 ft 64 kts 284°
2026-05-06 15:59 28.54328 77.09968 753 ft 151 kts 284°
2026-05-06 15:59 28.54639 77.08552 1009 ft 204 kts 284°
2026-05-06 15:59 28.55000 77.06916 1649 ft 222 kts 285°
2026-05-06 15:59 28.55353 77.05175 2471 ft 230 kts 276°
2026-05-06 16:00 28.55051 77.03299 2794 ft 258 kts 239°
2026-05-06 16:00 28.53701 77.01920 3287 ft 270 kts 201°
2026-05-06 16:00 28.51879 77.01329 3844 ft 275 kts 193°
2026-05-06 16:00 28.50006 77.00813 4479 ft 277 kts 195°
2026-05-06 16:01 28.48160 77.00211 5202 ft 276 kts 198°
2026-05-06 16:01 28.46357 76.99557 5948 ft 274 kts 200°
2026-05-06 16:01 28.44526 76.98879 6581 ft 277 kts 200°
2026-05-06 16:01 28.42711 76.98207 6821 ft 280 kts 201°
2026-05-06 16:02 28.40857 76.97524 6922 ft 278 kts 200°
2026-05-06 16:02 28.39015 76.96848 7558 ft 279 kts 201°
2026-05-06 16:02 28.37159 76.96168 8169 ft 280 kts 201°
2026-05-06 16:02 28.35303 76.95491 8766 ft 282 kts 202°
2026-05-06 16:03 28.33420 76.94803 9376 ft 284 kts 202°
2026-05-06 16:03 28.31555 76.94123 9939 ft 286 kts 202°
2026-05-06 16:03 28.29639 76.93424 10231 ft 300 kts 202°
2026-05-06 16:03 28.27564 76.92666 10356 ft 318 kts 202°
2026-05-06 16:04 28.25418 76.91879 10484 ft 334 kts 204°
2026-05-06 16:04 28.23371 76.90585 10581 ft 344 kts 227°
2026-05-06 16:04 28.21843 76.88453 10830 ft 353 kts 238°
2026-05-06 16:04 28.20457 76.86115 11040 ft 362 kts 238°
2026-05-06 16:05 28.18855 76.83886 11324 ft 374 kts 223°
2026-05-06 16:05 28.16516 76.82508 12027 ft 382 kts 202°
2026-05-06 16:05 28.13972 76.81677 12404 ft 388 kts 200°
2026-05-06 16:05 28.11391 76.80714 12623 ft 390 kts 210°
2026-05-06 16:06 28.09290 76.78856 13172 ft 379 kts 234°
2026-05-06 16:06 28.07711 76.76501 13670 ft 377 kts 238°
2026-05-06 16:06 28.06102 76.74110 13864 ft 386 kts 233°
2026-05-06 16:06 28.04138 76.71978 14473 ft 395 kts 224°
2026-05-06 16:07 28.01920 76.70105 15216 ft 400 kts 219°
2026-05-06 16:07 27.99567 76.68358 15842 ft 407 kts 217°
2026-05-06 16:07 27.97133 76.66660 16442 ft 414 kts 216°
2026-05-06 16:07 27.94711 76.64941 16961 ft 412 kts 218°
2026-05-06 16:08 27.92359 76.63130 17154 ft 415 kts 220°
2026-05-06 16:08 27.90017 76.61171 17331 ft 418 kts 222°
2026-05-06 16:08 27.87714 76.59140 17595 ft 420 kts 223°
2026-05-06 16:08 27.85435 76.57091 17858 ft 421 kts 223°
2026-05-06 16:09 27.83123 76.55029 18107 ft 424 kts 223°
2026-05-06 16:09 27.80815 76.52999 18326 ft 425 kts 222°
2026-05-06 16:09 27.78452 76.50976 18583 ft 430 kts 221°
2026-05-06 16:09 27.75993 76.48989 19094 ft 435 kts 219°
2026-05-06 16:10 27.73483 76.47065 19810 ft 435 kts 218°
2026-05-06 16:10 27.70929 76.45203 20437 ft 438 kts 217°
2026-05-06 16:10 27.68343 76.43359 20976 ft 442 kts 217°
2026-05-06 16:10 27.65740 76.41487 21482 ft 446 kts 218°
2026-05-06 16:11 27.63139 76.39581 21887 ft 442 kts 218°
2026-05-06 16:11 27.60595 76.37677 21920 ft 446 kts 219°
2026-05-06 16:11 27.58015 76.35720 22010 ft 449 kts 219°
2026-05-06 16:11 27.55423 76.33752 22153 ft 453 kts 219°
2026-05-06 16:12 27.52780 76.31755 22624 ft 457 kts 218°
2026-05-06 16:12 27.50135 76.29793 23272 ft 457 kts 217°
2026-05-06 16:12 27.47421 76.27878 23799 ft 460 kts 216°
2026-05-06 16:12 27.44668 76.26003 24241 ft 463 kts 216°
2026-05-06 16:13 27.41884 76.24139 24629 ft 468 kts 216°
2026-05-06 16:13 27.39103 76.22284 25015 ft 472 kts 216°
2026-05-06 16:13 27.36272 76.20382 25439 ft 474 kts 216°
2026-05-06 16:13 27.33442 76.18464 25893 ft 476 kts 216°
2026-05-06 16:14 27.30595 76.16522 26330 ft 478 kts 216°
2026-05-06 16:14 27.27729 76.14558 26708 ft 482 kts 216°
2026-05-06 16:14 27.24900 76.12616 27125 ft 483 kts 216°
2026-05-06 16:14 27.22023 76.10643 27535 ft 486 kts 216°
2026-05-06 16:15 27.19112 76.08649 27853 ft 490 kts 216°
2026-05-06 16:15 27.16189 76.06650 28196 ft 494 kts 216°
2026-05-06 16:15 27.13239 76.04635 28566 ft 496 kts 216°
2026-05-06 16:15 27.10290 76.02625 28936 ft 498 kts 216°
2026-05-06 16:16 27.07306 76.00593 29267 ft 501 kts 216°
2026-05-06 16:16 27.04325 75.98563 29573 ft 503 kts 216°
2026-05-06 16:16 27.01362 75.96547 29908 ft 505 kts 216°
2026-05-06 16:16 26.98364 75.94509 30289 ft 503 kts 216°
2026-05-06 16:17 26.95370 75.92476 30754 ft 500 kts 216°
2026-05-06 16:17 26.92408 75.90464 31210 ft 497 kts 217°
2026-05-06 16:17 26.89451 75.88456 31596 ft 495 kts 217°
2026-05-06 16:17 26.86497 75.86448 31955 ft 495 kts 217°
2026-05-06 16:18 26.83539 75.84463 32303 ft 494 kts 216°
2026-05-06 16:18 26.80522 75.82599 32658 ft 494 kts 213°
2026-05-06 16:18 26.77486 75.80954 32853 ft 491 kts 210°
2026-05-06 16:18 26.74327 75.79453 32795 ft 492 kts 207°
2026-05-06 16:19 26.67874 75.76903 32798 ft 492 kts 204°
2026-05-06 16:19 26.61312 75.74620 32842 ft 496 kts 204°
2026-05-06 16:20 26.54735 75.72080 32989 ft 503 kts 206°
2026-05-06 16:20 26.51472 75.70717 33326 ft 501 kts 207°
2026-05-06 16:20 26.48217 75.69325 33734 ft 497 kts 207°
2026-05-06 16:21 26.41774 75.66547 33811 ft 498 kts 207°
2026-05-06 16:21 26.35304 75.63791 33811 ft 496 kts 207°
2026-05-06 16:22 26.28842 75.61072 33809 ft 495 kts 207°
2026-05-06 16:22 26.22419 75.58378 33809 ft 495 kts 207°
2026-05-06 16:23 26.15950 75.55663 33812 ft 495 kts 207°
2026-05-06 16:23 26.09527 75.52967 33818 ft 496 kts 207°
2026-05-06 16:24 26.03041 75.50248 33814 ft 498 kts 207°
2026-05-06 16:24 25.96568 75.47538 33807 ft 499 kts 207°
2026-05-06 16:25 25.90108 75.44698 33801 ft 493 kts 211°
2026-05-06 16:25 25.87123 75.43026 33808 ft 479 kts 218°
2026-05-06 16:25 25.84579 75.40723 33821 ft 460 kts 237°
2026-05-06 16:26 25.81282 75.34853 33822 ft 446 kts 244°
2026-05-06 16:26 25.79422 75.32054 33814 ft 456 kts 232°
2026-05-06 16:26 25.77083 75.29678 33835 ft 465 kts 226°
2026-05-06 16:27 25.72146 75.25113 33809 ft 454 kts 230°
2026-05-06 16:27 25.68026 75.19972 33834 ft 444 kts 238°
2026-05-06 16:28 25.64165 75.14567 33835 ft 454 kts 237°
2026-05-06 16:28 25.60006 75.09144 33835 ft 465 kts 234°
2026-05-06 16:29 25.55669 75.03821 33833 ft 472 kts 233°
2026-05-06 16:29 25.51200 74.98413 33832 ft 475 kts 233°
2026-05-06 16:30 25.47499 74.93909 33833 ft 476 kts 234°
2026-05-06 16:30 25.42328 74.87571 33835 ft 476 kts 234°
2026-05-06 16:31 25.37891 74.82125 33833 ft 475 kts 234°
2026-05-06 16:31 25.33485 74.76730 33826 ft 474 kts 234°
2026-05-06 16:32 25.29060 74.71323 33830 ft 473 kts 234°
2026-05-06 16:32 25.24641 74.65929 33838 ft 472 kts 234°
2026-05-06 16:33 25.20235 74.60555 33834 ft 471 kts 234°
2026-05-06 16:34 25.13622 74.52499 33841 ft 471 kts 234°
2026-05-06 16:34 25.09247 74.47176 33838 ft 471 kts 234°
2026-05-06 16:35 25.04862 74.41842 33847 ft 471 kts 234°
2026-05-06 16:35 25.00457 74.36487 33847 ft 471 kts 234°
2026-05-06 16:36 24.96036 74.31118 33845 ft 471 kts 234°
2026-05-06 16:36 24.91646 74.25795 33853 ft 472 kts 234°
2026-05-06 16:37 24.87226 74.20442 33849 ft 472 kts 234°
2026-05-06 16:37 24.83550 74.15995 33853 ft 472 kts 234°
2026-05-06 16:38 24.78376 74.09743 33856 ft 472 kts 234°
2026-05-06 16:38 24.74689 74.05291 33856 ft 472 kts 234°
2026-05-06 16:39 24.70274 73.99967 33853 ft 473 kts 234°
2026-05-06 16:39 24.65834 73.94616 33864 ft 473 kts 234°
2026-05-06 16:40 24.61429 73.89232 33842 ft 471 kts 236°
2026-05-06 16:40 24.59399 73.86459 33854 ft 460 kts 239°
2026-05-06 16:40 24.57543 73.83626 33853 ft 453 kts 242°
2026-05-06 16:41 24.54304 73.77804 33858 ft 440 kts 246°
2026-05-06 16:41 24.51320 73.71933 33863 ft 448 kts 246°
2026-05-06 16:42 24.48101 73.65969 33870 ft 458 kts 244°
2026-05-06 16:42 24.44678 73.59980 33871 ft 466 kts 243°
2026-05-06 16:43 24.41188 73.53990 33858 ft 469 kts 243°
2026-05-06 16:43 24.37674 73.47953 33855 ft 469 kts 243°
2026-05-06 16:44 24.34186 73.41929 33852 ft 469 kts 243°
2026-05-06 16:44 24.30694 73.35889 33846 ft 468 kts 243°
2026-05-06 16:45 24.27205 73.29854 33841 ft 468 kts 243°
2026-05-06 16:45 24.23724 73.23846 33822 ft 468 kts 243°
2026-05-06 16:46 24.20234 73.17831 33817 ft 467 kts 243°
2026-05-06 16:46 24.16762 73.11856 33828 ft 467 kts 243°
2026-05-06 16:47 24.13254 73.05827 33814 ft 468 kts 243°
2026-05-06 16:47 24.09764 72.99836 33809 ft 468 kts 243°
2026-05-06 16:48 24.06268 72.93842 33805 ft 468 kts 243°
2026-05-06 16:48 24.02763 72.87842 33815 ft 468 kts 244°
2026-05-06 16:49 23.99239 72.81837 33793 ft 468 kts 244°
2026-05-06 16:49 23.95728 72.75837 33794 ft 467 kts 244°
2026-05-06 16:50 23.92222 72.69842 33783 ft 467 kts 244°
2026-05-06 16:50 23.88734 72.63887 33785 ft 467 kts 244°
2026-05-06 16:51 23.85222 72.57907 33775 ft 467 kts 244°
2026-05-06 16:51 23.81705 72.51927 33776 ft 467 kts 244°
2026-05-06 16:52 23.78206 72.45986 33769 ft 467 kts 243°
2026-05-06 16:52 23.74684 72.40012 33767 ft 468 kts 243°
2026-05-06 16:53 23.71158 72.34038 33766 ft 468 kts 243°
2026-05-06 16:53 23.67642 72.28088 33762 ft 468 kts 243°
2026-05-06 16:54 23.64121 72.22137 33760 ft 468 kts 243°
2026-05-06 16:54 23.60576 72.16153 33763 ft 469 kts 243°
2026-05-06 16:55 23.57037 72.10185 33758 ft 469 kts 243°
2026-05-06 16:55 23.53481 72.04195 33760 ft 469 kts 243°
2026-05-06 16:56 23.49946 71.98249 33759 ft 469 kts 243°
2026-05-06 16:56 23.46382 71.92262 33760 ft 469 kts 243°
2026-05-06 16:57 23.42850 71.86334 33764 ft 470 kts 242°
2026-05-06 16:57 23.39285 71.80358 33765 ft 470 kts 242°
2026-05-06 16:58 23.35710 71.74372 33771 ft 470 kts 242°
2026-05-06 16:58 23.32161 71.68439 33775 ft 470 kts 242°
2026-05-06 16:59 23.28589 71.62471 33776 ft 470 kts 242°
2026-05-06 16:59 23.25010 71.56501 33778 ft 470 kts 242°
2026-05-06 17:00 23.21447 71.50563 33779 ft 470 kts 242°
2026-05-06 17:00 23.17869 71.44607 33800 ft 470 kts 242°
2026-05-06 17:01 23.14300 71.38674 33798 ft 470 kts 242°
2026-05-06 17:01 23.10707 71.32706 33785 ft 471 kts 242°
2026-05-06 17:02 23.07111 71.26742 33809 ft 472 kts 242°
2026-05-06 17:02 23.03527 71.20804 33800 ft 472 kts 241°
2026-05-06 17:03 22.99926 71.14844 33809 ft 473 kts 241°
2026-05-06 17:03 22.96308 71.08862 33811 ft 474 kts 241°
2026-05-06 17:04 22.92675 71.02865 33810 ft 474 kts 241°
2026-05-06 17:04 22.89069 70.96915 33827 ft 476 kts 241°
2026-05-06 17:05 22.85420 70.90902 33824 ft 477 kts 241°
2026-05-06 17:05 22.82010 70.84833 33810 ft 462 kts 250°
2026-05-06 17:05 22.81116 70.81544 33817 ft 453 kts 266°
2026-05-06 17:06 22.81047 70.78138 33838 ft 453 kts 276°
2026-05-06 17:06 22.81804 70.71394 33824 ft 446 kts 279°
2026-05-06 17:07 22.82435 70.64756 33813 ft 439 kts 275°
2026-05-06 17:07 22.82592 70.58186 33829 ft 440 kts 274°
2026-05-06 17:08 22.82817 70.51465 33833 ft 450 kts 275°
2026-05-06 17:08 22.83206 70.44627 33829 ft 458 kts 276°
2026-05-06 17:09 22.83660 70.37707 33827 ft 464 kts 276°
2026-05-06 17:09 22.84111 70.30704 33823 ft 466 kts 276°
2026-05-06 17:10 22.84542 70.23682 33824 ft 466 kts 276°
2026-05-06 17:10 22.84961 70.16707 33819 ft 466 kts 276°
2026-05-06 17:11 22.85380 70.09700 33816 ft 465 kts 276°
2026-05-06 17:11 22.85798 70.02696 33821 ft 463 kts 276°
2026-05-06 17:12 22.86210 69.95757 33822 ft 463 kts 276°
2026-05-06 17:12 22.86620 69.88796 33816 ft 462 kts 276°
2026-05-06 17:13 22.87025 69.81865 33823 ft 462 kts 276°
2026-05-06 17:13 22.87429 69.74912 33823 ft 462 kts 276°
2026-05-06 17:14 22.87833 69.67960 33818 ft 462 kts 276°
2026-05-06 17:14 22.88279 69.60986 33821 ft 462 kts 276°
2026-05-06 17:15 22.88741 69.54026 33825 ft 463 kts 276°
2026-05-06 17:15 22.89194 69.47093 33822 ft 463 kts 276°
2026-05-06 17:16 22.89642 69.40094 33817 ft 464 kts 276°
2026-05-06 17:16 22.90083 69.33097 33820 ft 464 kts 276°
2026-05-06 17:17 22.90521 69.26105 33819 ft 465 kts 276°
2026-05-06 17:17 22.90957 69.19106 33817 ft 465 kts 276°
2026-05-06 17:18 22.91388 69.12154 33817 ft 465 kts 276°
2026-05-06 17:18 22.91818 69.05150 33818 ft 465 kts 276°
2026-05-06 17:19 22.92246 68.98132 33817 ft 465 kts 276°
2026-05-06 17:19 22.92669 68.91158 33819 ft 465 kts 276°
2026-05-06 17:20 22.93089 68.84176 33819 ft 465 kts 276°
2026-05-06 17:20 22.93509 68.77146 33821 ft 465 kts 276°
2026-05-06 17:21 22.93924 68.70136 33820 ft 465 kts 276°
2026-05-06 17:21 22.94334 68.63163 33818 ft 465 kts 276°
2026-05-06 17:22 22.94744 68.56146 33818 ft 465 kts 276°
2026-05-06 17:22 22.95148 68.49178 33818 ft 465 kts 276°
2026-05-06 17:23 22.95552 68.42145 33816 ft 466 kts 276°
2026-05-06 17:23 22.95879 68.35190 33803 ft 457 kts 274°
2026-05-06 17:24 22.95900 68.28337 33810 ft 449 kts 272°
2026-05-06 17:24 22.95835 68.21637 33807 ft 443 kts 272°
2026-05-06 17:25 22.95809 68.16094 33812 ft 438 kts 272°
2026-05-06 17:25 22.95809 68.09533 33806 ft 434 kts 272°
2026-05-06 17:26 22.95814 68.02997 33809 ft 430 kts 272°
2026-05-06 17:26 22.95811 67.96527 33803 ft 426 kts 272°
2026-05-06 17:27 22.95804 67.90149 33808 ft 423 kts 272°
2026-05-06 17:27 22.95801 67.83751 33825 ft 430 kts 272°
2026-05-06 17:28 22.95820 67.77219 33819 ft 430 kts 272°
2026-05-06 17:28 22.95836 67.70743 33811 ft 427 kts 272°
2026-05-06 17:29 22.95847 67.64345 33818 ft 426 kts 272°
2026-05-06 17:29 22.95855 67.57914 33818 ft 425 kts 272°
2026-05-06 17:30 22.95861 67.51546 33817 ft 423 kts 272°
2026-05-06 17:30 22.95864 67.45140 33814 ft 424 kts 272°
2026-05-06 17:31 22.95863 67.38743 33810 ft 422 kts 272°